パンスターズ彗星

C/2016 VZ18 ( PanSTARRS )

English version
Home page
Updated on February 5, 2017

---------------------------------------------------------------------

・ プロフィール

発見日 2016年11月6日
発見光度 21.8等
発見者 Pan-STARRS 1 telescope (Haleakala)

・ 軌道要素

Epoch 2017 Feb. 16.0 TT = JDT 2457800.5
T 2017 Mar. 7.37988 TT                                  MPC
q   0.9102677            (2000.0)            P               Q
z  +0.0051364      Peri.   36.38565     -0.66049037     -0.63393674
 +/-0.0000036      Node    98.95510     +0.55612309     -0.77306556
e   0.9953245      Incl.   24.03558     +0.50445969     +0.02222277
From 86 observations 2016 Oct. 8-2017 Jan. 27, mean residual 0".38.

・ 星図

・ 光度変化

        m1 = 18.0 + 5 logΔ + 10.0 log r

---------------------------------------------------------------------

軌道要素はM.P.E.C. 2017-B83に掲載されたものです。
星図はステラナビゲータ Ver.10 (アストロアーツ) で作成したものです。
光度グラフはComet for Windowsで作成したものです。

---------------------------------------------------------------------

Copyright(C) Seiichi Yoshida (comet@aerith.net). All rights reserved.